KF5JED-13 Weather Reports


time (UTC)temp
F
wind
direction
speed
knots
gust
knots
rain 1hr
in
rain 24hr
in
rain mn
in
humidity
%
barometer
mb
20240613050724 71 159 8.7 12.2 0.00 0.00 0.00 84 1016.5
20240613050223 71 157 7.0 9.6 0.00 0.00 0.00 84 1016.5
20240613045723 72 163 9.6 12.2 0.00 0.00 0.00 82 1016.7
20240613045222 72 153 7.8 12.2 0.00 0.00 0.00 81 1016.6
20240613044720 72 148 8.7 12.2 0.00 0.00 0.00 80 1016.6
20240613044217 73 149 7.8 13.0 0.00 0.00 0.00 80 1016.3
20240613043717 73 158 11.3 13.9 0.00 0.00 0.00 78 1016.6
20240613043215 73 148 7.8 13.0 0.00 0.00 0.00 78 1016.7
20240613042714 73 149 8.7 10.4 0.00 0.00 0.00 77 1016.6
20240613042213 73 155 10.4 13.0 0.00 0.00 0.00 76 1016.7
20240613041711 73 153 10.4 13.0 0.00 0.00 0.00 76 1016.7
20240613041210 74 141 9.6 11.3 0.00 0.00 0.00 75 1016.5
20240613040709 74 153 7.8 13.9 0.00 0.00 0.00 73 1016.5
20240613040208 74 146 10.4 12.2 0.00 0.00 0.00 72 1016.5
20240613035706 74 155 8.7 10.4 0.00 0.00 0.00 73 1016.2
20240613035204 74 154 8.7 12.2 0.00 0.00 0.00 73 1016.5
20240613034704 74 157 7.0 13.0 0.00 0.00 0.00 73 1016.3
20240613034203 74 155 8.7 12.2 0.00 0.00 0.00 74 1016.2
20240613033702 75 150 7.8 13.0 0.00 0.00 0.00 73 1016.1
20240613033201 75 149 7.0 12.2 0.00 0.00 0.00 73 1016.0
20240613032700 75 147 7.8 11.3 0.00 0.00 0.00 74 1016.0
20240613032159 75 149 7.8 9.6 0.00 0.00 0.00 74 1016.1
20240613031657 75 144 8.7 12.2 0.00 0.00 0.00 74 1016.1
20240613031155 75 142 8.7 10.4 0.00 0.00 0.00 75 1016.0
20240613030654 75 143 7.0 10.4 0.00 0.00 0.00 74 1016.2
20240613030154 75 149 7.0 9.6 0.00 0.00 0.00 75 1016.1
20240613025653 75 142 5.2 9.6 0.00 0.00 0.00 73 1016.1
20240613025151 76 136 7.8 8.7 0.00 0.00 0.00 71 1016.0
20240613024651 76 146 6.1 8.7 0.00 0.00 0.00 71 1016.0
20240613024149 77 150 7.0 9.6 0.00 0.00 0.00 70 1015.7
20240613023648 77 143 6.1 10.4 0.00 0.00 0.00 70 1015.8
20240613023147 77 157 9.6 11.3 0.00 0.00 0.00 69 1015.7
20240613022646 77 149 7.0 10.4 0.00 0.00 0.00 69 1015.7
20240613022146 77 143 6.1 8.7 0.00 0.00 0.00 69 1015.7
20240613021645 78 140 7.8 9.6 0.00 0.00 0.00 68 1015.6
20240613021143 78 153 8.7 11.3 0.00 0.00 0.00 67 1015.6
20240613020642 78 148 6.1 9.6 0.00 0.00 0.00 68 1015.5
20240613020141 79 160 7.8 9.6 0.00 0.00 0.00 66 1015.6
20240613015640 80 152 7.0 10.4 0.00 0.00 0.00 65 1015.5
20240613015139 80 156 6.1 10.4 0.00 0.00 0.00 65 1015.3
20240613014638 80 156 5.2 8.7 0.00 0.00 0.00 64 1015.3
20240613014136 81 150 6.1 8.7 0.00 0.00 0.00 63 1015.3
20240613013635 81 160 7.8 9.6 0.00 0.00 0.00 61 1015.6
20240613013134 82 160 7.0 8.7 0.00 0.00 0.00 61 1015.2
20240613012633 82 151 6.1 6.1 0.00 0.00 0.00 61 1015.5
20240613012133 83 151 6.1 8.7 0.00 0.00 0.00 58 1015.5
20240613011632 84 159 7.0 11.3 0.00 0.00 0.00 56 1015.3
20240613011132 84 160 7.8 9.6 0.00 0.00 0.00 56 1015.2
20240613010631 84 165 7.8 11.3 0.00 0.00 0.00 54 1015.3
20240613010130 84 172 7.8 11.3 0.00 0.00 0.00 55 1015.2
20240613005629 85 165 9.6 14.8 0.00 0.00 0.00 53 1015.0
20240613005128 85 172 10.4 13.9 0.00 0.00 0.00 54 1015.0
20240613004628 85 159 11.3 14.8 0.00 0.00 0.00 54 1015.2
20240613004127 86 169 11.3 15.6 0.00 0.00 0.00 52 1015.0
20240613003625 86 166 10.4 14.8 0.00 0.00 0.00 52 1015.0
20240613003124 86 160 12.2 14.8 0.00 0.00 0.00 51 1015.2
20240613002622 86 193 9.6 15.6 0.00 0.00 0.00 52 1015.1
20240613002121 86 161 10.4 14.8 0.00 0.00 0.00 52 1015.2
20240613001619 87 172 8.7 13.0 0.00 0.00 0.00 51 1015.1
20240613001117 87 190 11.3 13.0 0.00 0.00 0.00 50 1015.3
20240613000617 87 169 12.2 16.5 0.00 0.00 0.00 52 1015.1
20240613000115 87 161 11.3 14.8 0.00 0.00 0.00 51 1015.3
20240612235613 87 185 13.0 15.6 0.00 0.00 0.00 51 1015.2
20240612235112 87 180 10.4 16.5 0.00 0.00 0.00 52 1015.5
20240612234611 87 201 9.6 13.0 0.00 0.00 0.00 52 1015.5
20240612234109 87 174 7.8 15.6 0.00 0.00 0.00 53 1015.3
20240612233608 87 173 12.2 13.9 0.00 0.00 0.00 50 1015.5
20240612233108 88 185 9.6 13.9 0.00 0.00 0.00 52 1015.8
20240612232606 88 192 8.7 15.6 0.00 0.00 0.00 50 1015.7
20240612232104 88 203 14.8 17.4 0.00 0.00 0.00 48 1015.6
20240612231602 88 185 9.6 13.9 0.00 0.00 0.00 49 1015.7
20240612231100 88 200 5.2 13.9 0.00 0.00 0.00 52 1015.7
20240612230558 88 178 8.7 11.3 0.00 0.00 0.00 52 1015.7
20240612230056 87 179 11.3 15.6 0.00 0.00 0.00 50 1015.6
20240612225556 88 164 7.8 13.9 0.00 0.00 0.00 54 1015.8
20240612225056 88 184 8.7 13.9 0.00 0.00 0.00 51 1015.8
20240612224555 88 191 6.1 8.7 0.00 0.00 0.00 53 1015.9
20240612224054 88 203 9.6 13.0 0.00 0.00 0.00 52 1016.0
20240612223553 87 204 9.6 13.0 0.00 0.00 0.00 53 1016.1
20240612223050 88 202 9.6 14.8 0.00 0.00 0.00 52 1016.1
20240612222549 88 200 11.3 15.6 0.00 0.00 0.00 52 1015.9
20240612222047 87 188 7.0 17.4 0.00 0.00 0.00 54 1016.2
20240612221547 88 179 9.6 13.9 0.00 0.00 0.00 54 1016.3
20240612221046 87 204 13.9 14.8 0.00 0.00 0.00 52 1016.5
20240612220544 87 206 10.4 17.4 0.00 0.00 0.00 52 1016.5
20240612220042 87 187 13.0 15.6 0.00 0.00 0.00 53 1016.7
20240612215541 87 196 13.9 15.6 0.00 0.00 0.00 53 1016.6
20240612215039 86 206 13.0 20.0 0.00 0.00 0.00 53 1016.7
20240612214538 87 193 11.3 13.9 0.00 0.00 0.00 53 1016.7
20240612214035 87 214 13.0 16.5 0.00 0.00 0.00 53 1016.8
20240612213535 87 175 7.8 13.0 0.00 0.00 0.00 53 1016.9
20240612213033 86 195 7.8 14.8 0.00 0.00 0.00 56 1016.8
20240612212531 87 199 8.7 10.4 0.00 0.00 0.00 55 1016.9
20240612212031 86 192 7.0 14.8 0.00 0.00 0.00 53 1017.0
20240612211531 87 202 10.4 13.0 0.00 0.00 0.00 56 1017.0
20240612211031 86 174 9.6 16.5 0.00 0.00 0.00 54 1017.1
20240612210530 86 193 7.8 14.8 0.00 0.00 0.00 57 1016.9
20240612210030 86 151 7.8 12.2 0.00 0.00 0.00 56 1017.2
20240612205528 85 209 12.2 14.8 0.00 0.00 0.00 55 1017.2
20240612205026 86 208 13.0 14.8 0.00 0.00 0.00 53 1017.5
20240612204525 85 176 13.0 14.8 0.00 0.00 0.00 56 1017.3
20240612204024 85 164 9.6 15.6 0.00 0.00 0.00 58 1017.6
20240612203523 85 218 9.6 14.8 0.00 0.00 0.00 55 1017.6
20240612203022 86 180 8.7 9.6 0.00 0.00 0.00 56 1017.2
20240612202517 86 194 7.8 17.4 0.00 0.00 0.00 55 1017.7
20240612202017 86 208 11.3 13.0 0.00 0.00 0.00 52 1017.6
20240612201517 86 203 7.8 13.0 0.00 0.00 0.00 55 1017.7
20240612201015 86 207 13.0 14.8 0.00 0.00 0.00 53 1017.8
20240612200515 85 206 10.4 13.9 0.00 0.00 0.00 54 1017.8
20240612200013 84 240 7.8 12.2 0.00 0.00 0.00 57 1017.9
20240612195511 85 201 9.6 15.6 0.00 0.00 0.00 56 1017.8
20240612195010 84 219 12.2 14.8 0.00 0.00 0.00 56 1017.7
20240612194508 84 217 11.3 15.6 0.00 0.00 0.00 57 1018.0
20240612194008 84 222 9.6 13.9 0.00 0.00 0.00 55 1017.9
20240612193505 85 203 15.6 16.5 0.00 0.00 0.00 55 1018.0
20240612193004 84 195 9.6 13.0 0.00 0.00 0.00 56 1017.9
20240612192503 84 190 11.3 12.2 0.00 0.00 0.00 59 1018.2
20240612192002 84 201 13.9 15.6 0.00 0.00 0.00 56 1018.4
20240612191500 82 230 2.6 12.2 0.00 0.00 0.00 58 1018.4
20240612190959 83 196 8.7 11.3 0.00 0.00 0.00 60 1018.4
20240612190458 83 185 9.6 12.2 0.00 0.00 0.00 61 1018.2
20240612185958 83 203 9.6 12.2 0.00 0.00 0.00 57 1018.7
20240612185456 83 187 10.4 11.3 0.00 0.00 0.00 59 1018.6
20240612184956 83 228 7.0 8.7 0.00 0.00 0.00 60 1018.7
20240612184455 82 165 5.2 10.4 0.00 0.00 0.00 64 1018.6
20240612183953 83 154 7.0 13.0 0.00 0.00 0.00 63 1018.7
20240612183453 82 184 7.0 14.8 0.00 0.00 0.00 61 1019.0
20240612182951 82 183 5.2 8.7 0.00 0.00 0.00 64 1018.8
20240612182449 82 195 7.8 11.3 0.00 0.00 0.00 63 1018.9
20240612181949 82 177 5.2 10.4 0.00 0.00 0.00 66 1019.1
20240612181448 81 194 5.2 7.8 0.00 0.00 0.00 68 1018.9
20240612180947 81 202 7.0 11.3 0.00 0.00 0.00 65 1019.0
20240612180445 80 179 3.5 9.6 0.00 0.00 0.00 67 1019.0
20240612175944 80 202 7.8 9.6 0.00 0.00 0.00 68 1019.4
20240612175442 78 210 8.7 13.0 0.00 0.00 0.00 67 1019.1
20240612174941 78 188 5.2 15.6 0.00 0.00 0.00 70 1019.2
20240612174439 79 198 6.1 10.4 0.00 0.00 0.00 69 1019.0
20240612173938 77 158 7.0 9.6 0.00 0.00 0.00 72 1019.2
20240612173437 78 199 10.4 13.0 0.00 0.00 0.00 69 1019.4
20240612172935 77 211 8.7 11.3 0.00 0.00 0.00 71 1019.2
20240612172434 77 197 8.7 9.6 0.00 0.00 0.00 71 1019.4
20240612171933 76 200 5.2 10.4 0.00 0.00 0.00 74 1019.2
20240612171432 75 212 7.8 13.0 0.00 0.00 0.00 73 1019.2
20240612170932 75 209 11.3 11.3 0.00 0.00 0.00 74 1019.5
20240612170431 74 206 7.8 14.8 0.00 0.00 0.00 75 1019.5
20240612165930 76 213 6.1 10.4 0.00 0.00 0.00 74 1019.6
20240612165429 74 223 11.3 13.9 0.00 0.00 0.00 77 1019.5
20240612164927 74 214 7.8 13.0 0.00 0.00 0.00 78 1019.5
20240612164425 74 196 8.7 14.8 0.00 0.00 0.00 78 1019.5
20240612163923 73 229 9.6 14.8 0.00 0.00 0.00 79 1019.5
20240612163423 73 214 11.3 13.0 0.00 0.00 0.00 79 1019.2
20240612162921 73 205 7.8 14.8 0.00 0.00 0.00 79 1019.6
20240612162419 72 209 9.6 16.5 0.00 0.00 0.00 79 1019.7
20240612161918 72 201 10.4 13.9 0.00 0.00 0.00 82 1019.8
20240612161417 72 226 6.1 10.4 0.00 0.00 0.00 80 1019.7
20240612160915 71 228 4.3 10.4 0.00 0.00 0.00 83 1020.0
20240612160414 71 215 5.2 12.2 0.00 0.00 0.00 84 1019.9
20240612155912 71 186 7.0 11.3 0.00 0.00 0.00 83 1020.0
20240612155410 71 200 9.6 13.9 0.00 0.00 0.00 84 1019.8
20240612154909 70 209 7.8 13.0 0.00 0.00 0.00 85 1020.1
20240612154408 70 219 7.0 11.3 0.00 0.00 0.00 86 1020.0
20240612153908 69 213 9.6 14.8 0.00 0.00 0.00 86 1020.0
20240612153406 69 212 9.6 15.6 0.00 0.00 0.00 88 1019.8
20240612152903 69 207 7.8 15.6 0.00 0.00 0.00 88 1020.0
20240612152401 68 192 8.7 15.6 0.00 0.00 0.00 89 1019.9
20240612151900 68 208 11.3 17.4 0.00 0.00 0.00 89 1019.8
20240612151359 68 209 9.6 14.8 0.00 0.00 0.00 89 1019.9
20240612150858 68 208 11.3 11.3 0.00 0.00 0.00 90 1020.1
20240612150356 68 226 7.8 14.8 0.00 0.00 0.00 90 1020.1
20240612145854 67 223 6.1 16.5 0.00 0.00 0.00 92 1020.1
20240612145353 67 204 11.3 13.0 0.00 0.00 0.00 92 1020.0
20240612144851 67 215 6.1 12.2 0.00 0.00 0.00 92 1020.2
20240612144350 66 203 11.3 14.8 0.00 0.00 0.00 93 1019.9
20240612143850 67 196 9.6 13.0 0.00 0.00 0.00 93 1020.0
20240612143348 66 206 10.4 12.2 0.00 0.00 0.00 93 1020.1
20240612142846 66 214 10.4 13.9 0.00 0.00 0.00 93 1020.0
20240612142346 66 210 7.8 13.0 0.00 0.00 0.00 94 1019.8
20240612141844 66 215 12.2 14.8 0.00 0.00 0.00 94 1019.9
20240612141342 66 219 9.6 13.9 0.00 0.00 0.00 96 1020.0
20240612140843 66 185 7.0 13.0 0.00 0.00 0.00 96 1020.1
20240612140341 66 189 7.8 12.2 0.00 0.00 0.00 96 1019.9
20240612135840 65 201 7.8 13.9 0.00 0.00 0.00 96 1019.9
20240612135339 66 181 8.7 11.3 0.00 0.00 0.00 96 1020.0
20240612134838 65 180 6.1 11.3 0.00 0.00 0.00 96 1019.8
20240612134336 65 194 11.3 12.2 0.00 0.00 0.00 97 1019.7
20240612133835 65 157 6.1 12.2 0.00 0.00 0.00 98 1019.8
20240612133334 65 164 8.7 12.2 0.00 0.00 0.00 98 1019.7
20240612132833 65 192 5.2 8.7 0.00 0.00 0.00 98 1019.6
20240612132331 65 178 5.2 11.3 0.00 0.00 0.00 98 1019.6
20240612131830 65 174 9.6 11.3 0.00 0.00 0.00 98 1019.7
20240612131328 65 179 6.1 10.4 0.00 0.00 0.00 98 1019.7
20240612130826 65 193 7.8 10.4 0.00 0.00 0.00 98 1019.7
20240612130325 65 197 10.4 12.2 0.00 0.00 0.00 98 1019.5
20240612125824 64 191 7.0 12.2 0.00 0.00 0.00 98 1019.5
20240612125324 64 187 7.8 11.3 0.00 0.00 0.00 99 1019.5
20240612124824 64 210 7.8 13.0 0.00 0.00 0.00 99 1019.4
20240612124322 64 201 10.4 11.3 0.00 0.00 0.00 99 1019.4
20240612123821 65 189 6.1 9.6 0.00 0.00 0.00 99 1019.2
20240612123321 64 179 7.0 11.3 0.00 0.00 0.00 99 1019.5
20240612122819 64 204 8.7 15.6 0.00 0.00 0.00 99 1019.2
20240612122319 64 180 7.8 9.6 0.00 0.00 0.00 99 1019.1
20240612121819 64 197 7.0 10.4 0.00 0.00 0.00 99 1019.0
20240612121316 64 204 8.7 10.4 0.00 0.00 0.00 99 1019.2
20240612120816 64 198 5.2 9.6 0.00 0.00 0.00 99 1019.0
20240612120315 64 203 6.1 7.0 0.00 0.00 0.00 99 1019.0
20240612115813 64 201 6.1 9.6 0.00 0.00 0.00 99 1018.7
20240612115312 65 168 5.2 7.0 0.00 0.00 0.00 99 1018.6
20240612114810 64 162 6.1 8.7 0.00 0.00 0.00 99 1018.7
20240612114308 64 178 6.1 7.0 0.00 0.00 0.00 99 1018.7
20240612113807 64 187 5.2 6.1 0.00 0.00 0.00 99 1018.9
20240612113305 64 177 5.2 7.8 0.00 0.00 0.00 99 1018.6
20240612112803 64 167 6.1 9.6 0.00 0.00 0.00 99 1019.0
20240612112305 64 165 6.1 9.6 0.00 0.00 0.00 99 1018.8
20240612111802 64 184 7.0 10.4 0.00 0.00 0.00 99 1019.0
20240612111301 64 194 9.6 11.3 0.00 0.00 0.00 99 1018.8
20240612110801 64 170 7.8 10.4 0.00 0.00 0.00 99 1018.8
20240612110300 64 190 7.0 9.6 0.00 0.00 0.00 99 1018.6
20240612105757 64 195 7.8 9.6 0.00 0.00 0.00 99 1018.9
20240612105256 64 186 6.1 13.9 0.00 0.00 0.00 99 1018.8
20240612104756 65 188 5.2 7.0 0.00 0.00 0.00 99 1018.8
20240612104253 65 188 7.0 10.4 0.00 0.00 0.00 99 1018.9
20240612103752 65 175 6.1 8.7 0.00 0.00 0.00 99 1018.9
20240612103252 65 179 7.0 12.2 0.00 0.00 0.00 99 1018.9
20240612102751 65 182 5.2 9.6 0.00 0.00 0.00 99 1018.9
20240612102251 65 180 5.2 8.7 0.00 0.00 0.00 99 1019.0
20240612101750 64 180 7.8 11.3 0.00 0.00 0.00 99 1018.7
20240612101248 65 174 7.0 7.8 0.00 0.00 0.00 99 1018.9
20240612100746 64 187 4.3 7.8 0.00 0.00 0.00 99 1019.0
20240612100246 64 195 3.5 8.7 0.00 0.00 0.00 99 1018.6
20240612095744 64 168 6.1 8.7 0.00 0.00 0.00 99 1018.8
20240612095243 64 197 5.2 11.3 0.00 0.00 0.00 99 1018.8
20240612094741 65 195 5.2 8.7 0.00 0.00 0.00 99 1018.7
20240612094240 65 174 6.1 8.7 0.00 0.00 0.00 99 1018.9
20240612093740 65 189 7.8 9.6 0.00 0.00 0.00 99 1018.8
20240612093239 65 185 5.2 7.0 0.00 0.00 0.00 99 1018.6
20240612092737 65 183 5.2 8.7 0.00 0.00 0.00 99 1018.6
20240612092237 65 162 7.8 11.3 0.00 0.00 0.00 99 1018.5
20240612091735 64 177 8.7 10.4 0.00 0.00 0.00 99 1018.6
20240612091235 65 176 7.0 12.2 0.00 0.00 0.00 99 1018.6
20240612090734 64 169 8.7 10.4 0.00 0.00 0.00 99 1018.2
20240612090233 65 168 7.0 7.8 0.00 0.00 0.00 99 1018.5
20240612085732 64 163 7.8 10.4 0.00 0.00 0.00 99 1018.4
20240612085231 64 174 7.0 10.4 0.00 0.00 0.00 99 1018.2
20240612084729 65 190 7.0 9.6 0.00 0.00 0.00 99 1018.4
20240612084228 64 155 6.1 9.6 0.00 0.00 0.00 99 1018.1
20240612083727 64 179 7.8 10.4 0.00 0.00 0.00 99 1018.4
20240612083227 64 155 6.1 9.6 0.00 0.00 0.00 99 1018.1
20240612082725 64 153 9.6 9.6 0.00 0.00 0.00 99 1017.9
20240612082224 64 147 7.0 8.7 0.00 0.00 0.00 99 1018.0
20240612081723 64 153 5.2 9.6 0.00 0.00 0.00 99 1018.4
20240612081220 64 148 5.2 7.0 0.00 0.00 0.00 99 1018.0
20240612080720 64 166 6.1 6.1 0.00 0.00 0.00 99 1018.4
20240612080219 64 159 4.3 5.2 0.00 0.00 0.00 98 1018.4
20240612075716 63 151 3.5 4.3 0.00 0.00 0.00 98 1018.5
20240612075214 64 158 3.5 4.3 0.00 0.00 0.00 98 1018.2
20240612074713 64 172 3.5 5.2 0.00 0.00 0.00 98 1018.4
20240612074212 64 162 3.5 4.3 0.00 0.00 0.00 98 1018.2
20240612073710 64 180 2.6 3.5 0.00 0.00 0.00 98 1018.5
20240612073210 64 156 2.6 3.5 0.00 0.00 0.00 98 1018.6
20240612072708 64 158 4.3 4.3 0.00 0.00 0.00 97 1018.6
20240612072204 64 181 3.5 5.2 0.00 0.00 0.00 97 1018.5
20240612071702 64 171 3.5 4.3 0.00 0.00 0.00 97 1018.0
20240612071201 64 164 6.1 7.8 0.00 0.00 0.00 97 1018.2
20240612070700 64 156 6.1 7.8 0.00 0.00 0.00 96 1018.4
20240612070156 64 156 6.1 8.7 0.00 0.00 0.00 96 1018.2
20240612065655 65 144 6.1 7.8 0.00 0.00 0.00 96 1018.4
20240612065152 65 134 7.8 9.6 0.00 0.00 0.00 96 1018.1
20240612064651 65 131 6.1 10.4 0.00 0.00 0.00 96 1018.2
20240612064150 65 133 6.1 9.6 0.00 0.00 0.00 95 1018.1
20240612063647 65 137 6.1 8.7 0.00 0.00 0.00 95 1018.1
20240612063146 65 132 7.8 11.3 0.00 0.00 0.00 95 1017.9
20240612062643 65 135 5.2 11.3 0.00 0.00 0.00 94 1018.0
20240612062140 65 143 9.6 10.4 0.00 0.00 0.00 94 1017.8
20240612061639 65 142 5.2 11.3 0.00 0.00 0.00 94 1018.0
20240612061138 65 126 7.0 10.4 0.00 0.00 0.00 94 1018.1
20240612060638 66 126 8.7 8.7 0.00 0.00 0.00 93 1017.9
20240612060136 66 137 6.1 9.6 0.00 0.00 0.00 93 1018.0
20240612055635 66 131 7.0 8.7 0.00 0.00 0.00 92 1018.1
20240612055133 66 139 6.1 9.6 0.00 0.00 0.00 92 1018.0
20240612054631 66 122 5.2 8.7 0.00 0.00 0.00 91 1018.0
20240612054131 66 123 3.5 8.7 0.00 0.00 0.00 91 1018.1
20240612053629 66 104 6.1 9.6 0.00 0.00 0.00 90 1017.9
20240612053128 66 89 3.5 8.7 0.00 0.00 0.00 90 1018.0
20240612052627 66 144 7.8 10.4 0.00 0.00 0.00 89 1018.1
20240612052126 66 100 4.3 10.4 0.00 0.00 0.00 89 1018.2
20240612051624 66 121 7.8 10.4 0.00 0.00 0.00 89 1018.4
20240612051123 66 129 7.0 10.4 0.00 0.00 0.00 89 1018.2